SEBI

Registration No.

INH000000305

Ip Address Lookup

So far visitors:

customizable counter

TRIAL

TRIAL

SEND SMS FOR TRIAL

EQUITY - COMMODITY OR BOTH

TO

 09920033678

AND GET TRIAL

 


Information: COPPER (MCX): LOT SIZE CHANGED TO 2500 from 1000 (from JUL CONTRACT)

SEBI Registration No.: INH000000305 *****

* Commodity: 9500/month * Equity: 6000/month


* Gold Package: 7000 * Gold-Silver Package: 8100
*Crude-NG-Copper-Nickel Package: 6000


To See Past Performance, Click Here

For TRIAL / Registration,

click here

Past Performance >> Equity Tips
 
Search
 
Entry Start Date Entry End Date
Exit Start Date Exit End Date
Scrip Name Contract
Package
 

Packages: Precious Metals - Energy and Base Metals - Profit is calculated on basis of 1 lot per call

Package: Equity calls: Profit is calculated as follows:

1. If the scrip is in F & O then 1 lot is counted otherwise

2. Trade of Rs.1,50,000/- per call is counted.

 
Page: ( 1 2 3 4 5 6 7 8 9 10 11 12 13 14 15 16 17 18 19 20 21 22 23 24 25 26 27 28 29 30 31 32 33 34 35 36 37 38 39 40 41 42 43 44 45 46 47 48 49 50 51 52 53 54 55 56 57 58 59 60 61 62 63 64 65 66 67 68 69 70 71 72 73 74 75 76 77 78 79 80 81 82 83 84 85 86 87 88 89 90 91 92 93 94 95 96 97 98 99 100 101 102 103 104 105 106 107 108 109 110 111 ) [Current Page: 105]
Displaying 7801 to 7875   Calls
Entry Date Type Scrip Entry Price (Rs) T1
(Rs)
T2
(Rs)
T3
(Rs)
Stop Loss
(Rs)
Exit Date Exit Rate
(Rs)
Profit
(Rs)
 
22-02-11 Buy Essar Oil 109 112 115 118 107 22-02-11 107 -4000.00 More
22-02-11 Buy CHAMBAL 75 78 80 82 73 22-02-11 76.20 4800.00 More
22-02-11 Buy HINDALCO 210 215 218 220 207 22-02-11 214.30 8600.00 More
22-02-11 Sell Educomp 500 490 480 --- 520 22-02-11 480 10000.00 More
22-02-11 Buy BATA 348 355 360 --- 345 22-02-11 345 -3000.00 More
21-02-11 Buy 1635 1645 1650 --- 1610 21-02-11 1660 3125.00 More
21-02-11 Sell Nifty 5452 5432 5412 --- 5480 21-02-11 5480 -1400.00 More
21-02-11 Sell Ranbaxy 507 500 492 --- 516 21-02-11 500.50 3250.00 More
21-02-11 Buy RAYMOND 293 300 310 320 290 21-02-11 290 -1050.00 More
21-02-11 Sell BANK NIFTY 10865 10825 10775 10725 11000 21-02-11 10785 2000.00 More
21-02-11 Sell Renuka 79 74 72 70 84 21-02-11 79.50 -2000.00 More
18-02-11 Buy Nifty 5542 5560 5580 5600 5519 18-02-11 5519 -1150.00 More
18-02-11 Buy TCS 1120 1130 1140 1155 1106 18-02-11 1131 5500.00 More
18-02-11 Buy BANK NIFTY 11064 11100 11150 11200 10970 18-02-11 11125 1525.00 More
18-02-11 Buy TATA STEEL 660 667 675 680 650 18-02-11 650 -5000.00 More
18-02-11 Buy HDFC 657 670 675 680 647 18-02-11 663.50 3250.00 More
18-02-11 Sell HCL TECH 463 455 450 440 471 18-02-11 457 6000.00 More
18-02-11 Buy SBI 2790 2810 2830 2850 2770 18-02-11 2812 2750.00 More
18-02-11 Buy Indian Bank 222 227 229 232 215 18-02-11 226.50 4500.00 More
18-02-11 Buy LICHSGFIN 203 209 215 218 190 18-02-11 205.45 3062.50 More
18-02-11 Buy 340 350 355 --- 330 18-02-11 336 -4000.00 More
17-02-11 Buy HINDALCO 213.10 217 221 229 208 17-02-11 211.80 -2600.00 More
17-02-11 Buy Above BANK NIFTY 11050 11150 11250 11350 10970 17-02-11 11174 3100.00 More
17-02-11 Buy Sintex 154 159 165 172 149 18-02-11 160.20 12400.00 More
17-02-11 Buy Nifty 5472.50 5490 5510 5525 5440 17-02-11 5520 2375.00 More
17-02-11 Buy Above Ambuja Cement 123 127 130 133 121 18-02-11 129.45 12900.00 More
17-02-11 Buy BOMDYEING 362.50 370 373 375 355 17-02-11 370 3750.00 More
17-02-11 Buy ADANI ENT 628.50 640 650 660 619 17-02-11 633.75 2625.00 More
17-02-11 Buy WIPRO 434 438 442 445 429.50 17-02-11 429.50 -3748.50 More
17-02-11 Buy IVRCL Infra 77.90 80 82 84 72 17-02-11 81.80 3900.00 More
17-02-11 Buy SAIL 163 171 --- --- 158 17-02-11 167.80 4800.00 More
16-02-11 Buy Unitech 35.20 37 39 --- 33 16-02-11 38 11200.00 More
16-02-11 Buy BANK NIFTY 10991 11050 11100 11200 10900 17-02-11 11015 600.00 More
16-02-11 Sell Nifty 5485 5470 5455 5435 5510 16-02-11 5470 750.00 More
16-02-11 Buy RELIANCE 941 950 955 958 927 16-02-11 951 2500.00 More
16-02-11 Buy LICHSGFIN 192 200 205 210 185 16-02-11 197 6250.00 More
15-02-11 Buy Ambuja Cement 119.55 123 128 132 117 16-02-11 122 4900.00 More
15-02-11 Buy 462.50 470 478 485 453 15-02-11 453 -4750.00 More
14-02-11 Buy GVK Power 28.50 31 33 35 24.50 15-02-11 29.45 7600.00 More
14-02-11 Buy ABB 655 665 675 685 648 17-02-11 674 4750.00 More
11-02-11 Sell Nifty 5220 5200 5180 --- 5244 11-02-11 5182 1900.00 More
11-02-11 Sell GRASIM 2240 2220 2200 2180 2270 11-02-11 2203 4625.00 More
11-02-11 Buy PNB MARCH 120 CALL 272.65 275 278 --- 268 15-02-11 276.30 3650.00 More
10-02-11 Sell ACC 928 915 905 900 945 10-02-11 945 -4250.00 More
09-02-11 Buy FinanTech 749 757 765 772 734 09-02-11 757 2000.00 More
09-02-11 Sell Bhushan Steel 375 362 352 344 402 09-02-11 375 0.00 More
08-02-11 Sell Central Bank 156 150 145 140 166 10-02-11 140 16000.00 More
08-02-11 Buy BANK NIFTY 10423 10475 10550 10600 10350 08-02-11 10350 -1825.00 More
08-02-11 Buy Nifty 5405 5425 5441 5470 5365 08-02-11 5365 -2000.00 More
07-02-11 Buy BANK NIFTY 10400 10450 10500 10550 10350 07-02-11 10500 2500.00 More
07-02-11 Sell ACC 982 970 960 950 1010 07-02-11 960 5500.00 More
07-02-11 Sell M&M 675 660 650 640 705 11-02-11 640 8750.00 More
04-02-11 Sell ACC 963 950 930 920 990 04-02-11 990 -6750.00 More
03-02-11 Buy Orchid Chem 294.50 300 304 308 287 04-02-11 306 23000.00 More
03-02-11 Buy HDIL 133 138 142 145 126 04-02-11 142 9000.00 More
03-02-11 Buy Astra Micro 47 50 54 --- 42 04-02-11 46 -2130.00 More
03-02-11 Buy HCC 36.75 40 44 48 34 04-02-11 37 1000.00 More
02-02-11 Buy PNB MARCH 120 CALL 275 280 285 290 271 03-02-11 282 7000.00 More
02-02-11 Buy Above HINDALCO 234 237 240 243 230 03-02-11 241.90 15800.00 More
01-02-11 Buy Hind Oil Exploration 189 193 195 197 185 01-02-11 185 -4000.00 More
01-02-11 Buy DR REDDY 1630 1650 1670 1690 1615 01-02-11 1615 -3750.00 More
01-02-11 Buy Central Bank 174.50 178 182 185 170 01-02-11 170 -4500.00 More
01-02-11 Buy TITAN 3625 3660 3690 3720 3600 01-02-11 3600 -3125.00 More
01-02-11 Buy Above Shrenuj 46.50 53 55 57 39 01-02-11 47 1075.00 More
31-01-11 Buy HINDALCO 227 233 235 240 217 01-02-11 233 12000.00 More
31-01-11 Buy Punj Lloyd 94.75 100 105 110 92.50 01-02-11 92.50 -4500.00 More
31-01-11 Sell JINDAL STEEL 652 645 635 620 678 31-01-11 665.45 -6725.00 More
31-01-11 Sell 322 315 307 --- 338 31-01-11 313.10 8900.00 More
31-01-11 Sell Ranbaxy 535 525 515 --- 545 31-01-11 529.50 2750.00 More
28-01-11 Sell JINDAL STEEL 669 661 655 650 692 28-01-11 659.20 4900.00 More
28-01-11 Sell 330 322 316 310 335 28-01-11 323.75 6250.00 More
27-01-11 Buy Nifty 5674 5690 5705 5720 5650 27-01-11 5650 -1200.00 More
27-01-11 Buy Camlin 62.60 67 72 78 52 27-01-11 66.85 6800.00 More
27-01-11 Buy VOLTAS 218.50 220 222 224 212 27-01-11 212 -6500.00 More
25-01-11 Sell BANK NIFTY 11000 10925 10850 10800 11130 25-01-11 10862.35 3441.25 More
Page wise profit 205650.25 Rs
Profit 26154042.00 Rs
TRIAL

TRIAL

SEND SMS FOR TRIAL

EQUITY - COMMODITY OR BOTH

TO

 09920033678

AND GET TRIAL